Private Wetterstation Sandau
Wetterdaten: Freitag, 28.09.2012
Datum Zeit Temp. A. Feuchte A. Luftdruck Regen Wind Richtung Richtung Taupunkt Windchill
28.09.2012 00:01 12,1 C 84 % 1008,7 hPa 0,0 l/m 5,8 km/h (2 Bft) W-SW 247 9,5 C 12,1 C
28.09.2012 00:06 12,1 C 84 % 1008,8 hPa 0,0 l/m 7,2 km/h (2 Bft) W-SW 247 9,5 C 12,1 C
28.09.2012 00:11 12,1 C 84 % 1008,9 hPa 0,0 l/m 9,0 km/h (2 Bft) SW 225 9,5 C 12,1 C
28.09.2012 00:16 12,1 C 84 % 1008,9 hPa 0,0 l/m 4,3 km/h (1 Bft) W-SW 247 9,5 C 12,1 C
28.09.2012 00:21 12,2 C 84 % 1008,8 hPa 0,0 l/m 10,8 km/h (2 Bft) W-SW 247 9,6 C 12,2 C
28.09.2012 00:26 12,2 C 84 % 1008,9 hPa 0,0 l/m 5,4 km/h (1 Bft) W 270 9,6 C 12,2 C
28.09.2012 00:31 12,1 C 84 % 1008,9 hPa 0,0 l/m 6,8 km/h (2 Bft) W 270 9,5 C 12,1 C
28.09.2012 00:36 12,1 C 85 % 1009,1 hPa 0,0 l/m 16,6 km/h (3 Bft) W-SW 247 9,7 C 12,1 C
28.09.2012 00:41 12,1 C 85 % 1009,1 hPa 0,0 l/m 20,2 km/h (4 Bft) W-SW 247 9,7 C 12,1 C
28.09.2012 00:46 12,1 C 85 % 1009,2 hPa 0,0 l/m 16,6 km/h (3 Bft) W 270 9,7 C 12,1 C
28.09.2012 00:51 12,1 C 85 % 1009,2 hPa 0,0 l/m 15,5 km/h (3 Bft) W 270 9,7 C 12,1 C
28.09.2012 00:56 12,1 C 85 % 1009,4 hPa 0,0 l/m 7,6 km/h (2 Bft) W-SW 247 9,7 C 12,1 C
28.09.2012 01:01 12,0 C 85 % 1009,4 hPa 0,0 l/m 17,3 km/h (3 Bft) W 270 9,6 C 12,0 C
28.09.2012 01:06 11,9 C 85 % 1009,4 hPa 0,0 l/m 11,9 km/h (2 Bft) W-SW 247 9,5 C 11,9 C
28.09.2012 01:11 11,9 C 86 % 1009,7 hPa 0,0 l/m 15,5 km/h (3 Bft) W-SW 247 9,6 C 11,9 C
28.09.2012 01:16 11,9 C 86 % 1009,7 hPa 0,0 l/m 10,1 km/h (2 Bft) W 270 9,6 C 11,9 C
28.09.2012 01:21 11,9 C 86 % 1009,7 hPa 0,0 l/m 12,2 km/h (2 Bft) W 270 9,6 C 11,9 C
28.09.2012 01:26 11,9 C 86 % 1009,7 hPa 0,0 l/m 10,1 km/h (2 Bft) W 270 9,6 C 11,9 C
28.09.2012 01:31 11,9 C 87 % 1009,9 hPa 0,0 l/m 15,5 km/h (3 Bft) W 270 9,8 C 11,9 C
28.09.2012 01:36 11,9 C 87 % 1010,0 hPa 0,0 l/m 15,8 km/h (3 Bft) W-SW 247 9,8 C 11,9 C
28.09.2012 01:41 11,9 C 87 % 1009,9 hPa 0,0 l/m 15,1 km/h (3 Bft) W 270 9,8 C 11,9 C
28.09.2012 01:46 12,1 C 87 % 1010,1 hPa 0,0 l/m 14,4 km/h (3 Bft) W 270 10,0 C 12,1 C
28.09.2012 01:51 12,1 C 86 % 1010,2 hPa 0,0 l/m 14,0 km/h (3 Bft) W 270 9,8 C 12,1 C
28.09.2012 01:56 12,2 C 86 % 1010,3 hPa 0,0 l/m 21,2 km/h (4 Bft) SW 225 9,9 C 12,2 C
28.09.2012 02:01 12,2 C 86 % 1010,5 hPa 0,0 l/m 8,6 km/h (2 Bft) W-SW 247 9,9 C 12,2 C
28.09.2012 02:06 12,2 C 86 % 1010,5 hPa 0,0 l/m 12,6 km/h (3 Bft) W-NW 292 9,9 C 12,2 C
28.09.2012 02:11 12,2 C 86 % 1010,4 hPa 0,0 l/m 18,0 km/h (3 Bft) W 270 9,9 C 12,2 C
28.09.2012 02:16 12,3 C 86 % 1010,6 hPa 0,0 l/m 5,4 km/h (1 Bft) W-SW 247 10,0 C 12,3 C
28.09.2012 02:21 12,3 C 86 % 1010,7 hPa 0,0 l/m 11,2 km/h (2 Bft) NW 315 10,0 C 12,3 C
28.09.2012 02:26 12,3 C 86 % 1010,7 hPa 0,0 l/m 11,5 km/h (2 Bft) W-SW 247 10,0 C 12,3 C
28.09.2012 02:31 12,3 C 86 % 1010,9 hPa 0,0 l/m 10,4 km/h (2 Bft) W-SW 247 10,0 C 12,3 C
28.09.2012 02:36 12,3 C 86 % 1011,0 hPa 0,0 l/m 14,8 km/h (3 Bft) W 270 10,0 C 12,3 C
28.09.2012 02:41 12,3 C 86 % 1011,0 hPa 0,0 l/m 20,2 km/h (4 Bft) W 270 10,0 C 12,3 C
28.09.2012 02:46 12,3 C 86 % 1011,1 hPa 0,0 l/m 14,8 km/h (3 Bft) W 270 10,0 C 12,3 C
28.09.2012 02:51 12,3 C 86 % 1011,1 hPa 0,0 l/m 17,3 km/h (3 Bft) W-SW 247 10,0 C 12,3 C
28.09.2012 02:56 12,3 C 86 % 1011,3 hPa 0,0 l/m 13,7 km/h (3 Bft) W-SW 247 10,0 C 12,3 C
28.09.2012 03:01 12,3 C 86 % 1011,3 hPa 0,0 l/m 6,1 km/h (2 Bft) W-SW 247 10,0 C 12,3 C
28.09.2012 03:06 12,3 C 86 % 1011,3 hPa 0,0 l/m 8,3 km/h (2 Bft) W 270 10,0 C 12,3 C
28.09.2012 03:11 12,3 C 86 % 1011,2 hPa 0,0 l/m 23,0 km/h (4 Bft) W-SW 247 10,0 C 12,3 C
28.09.2012 03:16 12,3 C 86 % 1011,3 hPa 0,0 l/m 12,2 km/h (2 Bft) S-SW 202 10,0 C 12,3 C
28.09.2012 03:21 12,3 C 86 % 1011,3 hPa 0,0 l/m 10,4 km/h (2 Bft) SW 225 10,0 C 12,3 C
28.09.2012 03:26 12,3 C 86 % 1011,5 hPa 0,0 l/m 5,8 km/h (2 Bft) SW 225 10,0 C 12,3 C
28.09.2012 03:31 12,3 C 86 % 1011,6 hPa 0,0 l/m 5,8 km/h (2 Bft) W-SW 247 10,0 C 12,3 C
28.09.2012 03:36 12,3 C 86 % 1011,6 hPa 0,0 l/m 13,7 km/h (3 Bft) S-SW 202 10,0 C 12,3 C
28.09.2012 03:41 12,3 C 86 % 1011,8 hPa 0,0 l/m 10,4 km/h (2 Bft) W-NW 292 10,0 C 12,3 C
28.09.2012 03:46 12,3 C 86 % 1011,9 hPa 0,0 l/m 14,8 km/h (3 Bft) W-SW 247 10,0 C 12,3 C
28.09.2012 03:51 12,3 C 86 % 1011,9 hPa 0,0 l/m 20,9 km/h (4 Bft) W 270 10,0 C 12,3 C
28.09.2012 03:56 12,3 C 86 % 1012,1 hPa 0,0 l/m 17,3 km/h (3 Bft) W 270 10,0 C 12,3 C
28.09.2012 04:01 12,3 C 86 % 1012,0 hPa 0,0 l/m 9,7 km/h (2 Bft) W-SW 247 10,0 C 12,3 C
28.09.2012 04:06 12,3 C 87 % 1012,2 hPa 0,0 l/m 6,5 km/h (2 Bft) NW 315 10,2 C 12,3 C
28.09.2012 04:11 12,3 C 87 % 1012,4 hPa 0,0 l/m 14,8 km/h (3 Bft) W-SW 247 10,2 C 12,3 C
28.09.2012 04:16 12,3 C 87 % 1012,4 hPa 0,0 l/m 13,3 km/h (3 Bft) W 270 10,2 C 12,3 C
28.09.2012 04:21 12,2 C 87 % 1012,4 hPa 0,0 l/m 12,6 km/h (3 Bft) S-SW 202 10,1 C 12,2 C
28.09.2012 04:26 12,2 C 87 % 1012,5 hPa 0,0 l/m 9,4 km/h (2 Bft) W 270 10,1 C 12,2 C
28.09.2012 04:31 12,2 C 87 % 1012,5 hPa 0,0 l/m 5,0 km/h (1 Bft) W-SW 247 10,1 C 12,2 C
28.09.2012 04:36 12,2 C 87 % 1012,6 hPa 0,0 l/m 19,4 km/h (3 Bft) W 270 10,1 C 12,2 C
28.09.2012 04:41 12,2 C 87 % 1012,6 hPa 0,0 l/m 13,3 km/h (3 Bft) W 270 10,1 C 12,2 C
28.09.2012 04:46 12,2 C 87 % 1012,7 hPa 0,0 l/m 7,6 km/h (2 Bft) W 270 10,1 C 12,2 C
28.09.2012 04:51 12,2 C 87 % 1012,7 hPa 0,0 l/m 11,9 km/h (2 Bft) W 270 10,1 C 12,2 C
28.09.2012 04:56 12,1 C 87 % 1012,8 hPa 0,0 l/m 14,0 km/h (3 Bft) W-SW 247 10,0 C 12,1 C
28.09.2012 05:01 12,1 C 87 % 1012,8 hPa 0,0 l/m 6,5 km/h (2 Bft) W 270 10,0 C 12,1 C
28.09.2012 05:06 12,1 C 88 % 1012,9 hPa 0,0 l/m 12,6 km/h (3 Bft) W 270 10,2 C 12,1 C
28.09.2012 05:11 12,1 C 88 % 1013,0 hPa 0,0 l/m 20,5 km/h (4 Bft) W-SW 247 10,2 C 12,1 C
28.09.2012 05:16 12,1 C 88 % 1013,1 hPa 0,0 l/m 9,0 km/h (2 Bft) W-SW 247 10,2 C 12,1 C
28.09.2012 05:21 12,1 C 88 % 1013,1 hPa 0,0 l/m 17,6 km/h (3 Bft) W 270 10,2 C 12,1 C
28.09.2012 05:26 12,1 C 88 % 1013,1 hPa 0,0 l/m 14,4 km/h (3 Bft) W-SW 247 10,2 C 12,1 C
28.09.2012 05:31 12,1 C 88 % 1013,2 hPa 0,0 l/m 14,0 km/h (3 Bft) W 270 10,2 C 12,1 C
28.09.2012 05:36 12,1 C 88 % 1013,1 hPa 0,0 l/m 13,0 km/h (3 Bft) W-SW 247 10,2 C 12,1 C
28.09.2012 05:41 12,0 C 88 % 1013,4 hPa 0,0 l/m 15,8 km/h (3 Bft) W 270 10,1 C 12,0 C
28.09.2012 05:46 12,0 C 88 % 1013,3 hPa 0,0 l/m 14,4 km/h (3 Bft) W-SW 247 10,1 C 12,0 C
28.09.2012 05:51 12,0 C 88 % 1013,4 hPa 0,0 l/m 6,5 km/h (2 Bft) W-SW 247 10,1 C 12,0 C
28.09.2012 05:56 12,0 C 88 % 1013,3 hPa 0,0 l/m 11,9 km/h (2 Bft) W-SW 247 10,1 C 12,0 C
28.09.2012 06:01 12,0 C 88 % 1013,4 hPa 0,0 l/m 13,7 km/h (3 Bft) W-SW 247 10,1 C 12,0 C
28.09.2012 06:06 11,9 C 88 % 1013,3 hPa 0,0 l/m 6,1 km/h (2 Bft) W-SW 247 10,0 C 11,9 C
28.09.2012 06:11 11,9 C 88 % 1013,5 hPa 0,0 l/m 5,0 km/h (1 Bft) W 270 10,0 C 11,9 C
28.09.2012 06:16 11,9 C 88 % 1013,6 hPa 0,0 l/m 6,5 km/h (2 Bft) W-SW 247 10,0 C 11,9 C
28.09.2012 06:21 11,9 C 88 % 1013,6 hPa 0,0 l/m 9,4 km/h (2 Bft) W-SW 247 10,0 C 11,9 C
28.09.2012 06:26 11,9 C 88 % 1013,7 hPa 0,0 l/m 13,3 km/h (3 Bft) W 270 10,0 C 11,9 C
28.09.2012 06:31 11,9 C 88 % 1013,8 hPa 0,0 l/m 9,0 km/h (2 Bft) W 270 10,0 C 11,9 C
28.09.2012 06:36 11,9 C 88 % 1013,9 hPa 0,0 l/m 8,3 km/h (2 Bft) W-SW 247 10,0 C 11,9 C
28.09.2012 06:41 11,8 C 88 % 1013,8 hPa 0,0 l/m 16,9 km/h (3 Bft) W 270 9,9 C 11,8 C
28.09.2012 06:46 11,8 C 88 % 1013,9 hPa 0,0 l/m 24,8 km/h (4 Bft) W-SW 247 9,9 C 11,8 C
28.09.2012 06:51 11,8 C 88 % 1014,2 hPa 0,0 l/m 17,6 km/h (3 Bft) W-SW 247 9,9 C 11,8 C
28.09.2012 06:56 11,8 C 88 % 1014,3 hPa 0,0 l/m 13,7 km/h (3 Bft) W-SW 247 9,9 C 11,8 C
28.09.2012 07:01 11,8 C 87 % 1014,5 hPa 0,0 l/m 3,2 km/h (1 Bft) W-NW 292 9,7 C 11,8 C
28.09.2012 07:06 11,8 C 87 % 1014,4 hPa 0,0 l/m 10,8 km/h (2 Bft) W 270 9,7 C 11,8 C
28.09.2012 07:11 11,8 C 87 % 1014,6 hPa 0,0 l/m 11,9 km/h (2 Bft) W 270 9,7 C 11,8 C
28.09.2012 07:16 11,8 C 87 % 1014,7 hPa 0,0 l/m 11,9 km/h (2 Bft) W-SW 247 9,7 C 11,8 C
28.09.2012 07:21 11,8 C 87 % 1014,7 hPa 0,0 l/m 12,2 km/h (2 Bft) W 270 9,7 C 11,8 C
28.09.2012 07:26 11,8 C 87 % 1014,7 hPa 0,0 l/m 7,6 km/h (2 Bft) S-SW 202 9,7 C 11,8 C
28.09.2012 07:31 11,6 C 87 % 1014,8 hPa 0,0 l/m 11,2 km/h (2 Bft) W 270 9,5 C 11,6 C
28.09.2012 07:36 11,6 C 87 % 1014,9 hPa 0,0 l/m 11,9 km/h (2 Bft) W 270 9,5 C 11,6 C
28.09.2012 07:41 11,5 C 87 % 1015,0 hPa 0,0 l/m 14,4 km/h (3 Bft) W 270 9,4 C 11,5 C
28.09.2012 07:46 11,4 C 87 % 1015,0 hPa 0,0 l/m 7,2 km/h (2 Bft) W 270 9,3 C 11,4 C
28.09.2012 07:51 11,4 C 87 % 1015,1 hPa 0,0 l/m 15,8 km/h (3 Bft) W 270 9,3 C 11,4 C
28.09.2012 07:56 11,4 C 87 % 1015,2 hPa 0,0 l/m 13,7 km/h (3 Bft) W 270 9,3 C 11,4 C
28.09.2012 08:01 11,5 C 87 % 1015,2 hPa 0,0 l/m 7,6 km/h (2 Bft) S-SW 202 9,4 C 11,5 C
28.09.2012 08:06 11,5 C 87 % 1015,3 hPa 0,0 l/m 10,1 km/h (2 Bft) W 270 9,4 C 11,5 C
28.09.2012 08:11 11,4 C 87 % 1015,4 hPa 0,0 l/m 7,2 km/h (2 Bft) W 270 9,3 C 11,4 C
28.09.2012 08:16 11,5 C 87 % 1015,4 hPa 0,0 l/m 7,6 km/h (2 Bft) W-SW 247 9,4 C 11,5 C
28.09.2012 08:21 11,5 C 87 % 1015,4 hPa 0,0 l/m 6,1 km/h (2 Bft) W-SW 247 9,4 C 11,5 C
28.09.2012 08:26 11,6 C 87 % 1015,3 hPa 0,0 l/m 10,1 km/h (2 Bft) W-SW 247 9,5 C 11,6 C
28.09.2012 08:31 11,8 C 87 % 1015,4 hPa 0,0 l/m 10,8 km/h (2 Bft) SW 225 9,7 C 11,8 C
28.09.2012 08:36 11,9 C 87 % 1015,4 hPa 0,0 l/m 6,1 km/h (2 Bft) S-SW 202 9,8 C 11,9 C
28.09.2012 08:41 12,1 C 86 % 1015,5 hPa 0,0 l/m 9,0 km/h (2 Bft) S-SW 202 9,8 C 12,1 C
28.09.2012 08:46 12,1 C 86 % 1015,4 hPa 0,0 l/m 7,6 km/h (2 Bft) SW 225 9,8 C 12,1 C
28.09.2012 08:51 12,2 C 86 % 1015,4 hPa 0,0 l/m 12,6 km/h (3 Bft) W-SW 247 9,9 C 12,2 C
28.09.2012 08:56 12,2 C 85 % 1015,5 hPa 0,0 l/m 14,8 km/h (3 Bft) S-SW 202 9,8 C 12,2 C
28.09.2012 09:01 12,3 C 85 % 1015,5 hPa 0,0 l/m 12,6 km/h (3 Bft) W-SW 247 9,9 C 12,3 C
28.09.2012 09:06 12,4 C 84 % 1015,6 hPa 0,0 l/m 16,6 km/h (3 Bft) W-SW 247 9,8 C 12,4 C
28.09.2012 09:11 12,4 C 84 % 1015,6 hPa 0,0 l/m 8,3 km/h (2 Bft) W 270 9,8 C 12,4 C
28.09.2012 09:16 12,6 C 84 % 1015,7 hPa 0,0 l/m 17,6 km/h (3 Bft) W-SW 247 10,0 C 12,6 C
28.09.2012 09:21 12,7 C 84 % 1015,8 hPa 0,0 l/m 16,2 km/h (3 Bft) W 270 10,1 C 12,7 C
28.09.2012 09:26 12,8 C 83 % 1015,9 hPa 0,0 l/m 13,7 km/h (3 Bft) W-SW 247 10,0 C 12,8 C
28.09.2012 09:31 13,1 C 83 % 1016,0 hPa 0,0 l/m 10,1 km/h (2 Bft) W 270 10,3 C 13,1 C
28.09.2012 09:36 13,3 C 83 % 1015,9 hPa 0,0 l/m 8,3 km/h (2 Bft) W-SW 247 10,5 C 13,3 C
28.09.2012 09:41 13,5 C 82 % 1016,1 hPa 0,0 l/m 19,4 km/h (3 Bft) W 270 10,5 C 13,5 C
28.09.2012 09:46 13,5 C 81 % 1016,1 hPa 0,0 l/m 20,9 km/h (4 Bft) W 270 10,3 C 13,5 C
28.09.2012 09:51 13,5 C 81 % 1016,3 hPa 0,0 l/m 4,0 km/h (1 Bft) W-NW 292 10,3 C 13,5 C
28.09.2012 09:56 13,5 C 81 % 1016,3 hPa 0,0 l/m 14,4 km/h (3 Bft) W 270 10,3 C 13,5 C
28.09.2012 10:01 13,5 C 81 % 1016,3 hPa 0,0 l/m 7,2 km/h (2 Bft) W-SW 247 10,3 C 13,5 C
28.09.2012 10:06 13,5 C 81 % 1016,3 hPa 0,0 l/m 5,4 km/h (1 Bft) W-SW 247 10,3 C 13,5 C
28.09.2012 10:11 13,6 C 81 % 1016,3 hPa 0,0 l/m 5,4 km/h (1 Bft) W-SW 247 10,4 C 13,6 C
28.09.2012 10:16 13,9 C 80 % 1016,4 hPa 0,0 l/m 18,4 km/h (3 Bft) W-SW 247 10,5 C 13,9 C
28.09.2012 10:21 13,9 C 79 % 1016,5 hPa 0,0 l/m 7,6 km/h (2 Bft) W 270 10,3 C 13,9 C
28.09.2012 10:26 14,1 C 79 % 1016,6 hPa 0,0 l/m 16,2 km/h (3 Bft) W-SW 247 10,5 C 14,1 C
28.09.2012 10:31 14,1 C 79 % 1016,6 hPa 0,0 l/m 10,4 km/h (2 Bft) W-SW 247 10,5 C 14,1 C
28.09.2012 10:36 14,4 C 78 % 1016,6 hPa 0,0 l/m 7,2 km/h (2 Bft) SW 225 10,6 C 14,4 C
28.09.2012 10:41 14,4 C 77 % 1016,5 hPa 0,0 l/m 10,1 km/h (2 Bft) W-SW 247 10,4 C 14,4 C
28.09.2012 10:46 14,6 C 77 % 1016,5 hPa 0,0 l/m 7,6 km/h (2 Bft) SW 225 10,6 C 14,6 C
28.09.2012 10:51 14,8 C 77 % 1016,7 hPa 0,0 l/m 8,6 km/h (2 Bft) W-SW 247 10,8 C 14,8 C
28.09.2012 10:56 14,9 C 76 % 1016,6 hPa 0,0 l/m 15,8 km/h (3 Bft) W 270 10,7 C 14,9 C
28.09.2012 11:01 14,9 C 75 % 1016,6 hPa 0,0 l/m 11,2 km/h (2 Bft) W-SW 247 10,5 C 14,9 C
28.09.2012 11:06 14,9 C 75 % 1016,7 hPa 0,0 l/m 28,1 km/h (4 Bft) W-SW 247 10,5 C 14,9 C
28.09.2012 11:11 15,1 C 74 % 1016,7 hPa 0,0 l/m 18,7 km/h (3 Bft) W-SW 247 10,5 C 15,1 C
28.09.2012 11:16 15,3 C 73 % 1016,7 hPa 0,0 l/m 18,0 km/h (3 Bft) W-SW 247 10,5 C 15,3 C
28.09.2012 11:21 15,4 C 72 % 1016,7 hPa 0,0 l/m 15,1 km/h (3 Bft) W 270 10,4 C 15,4 C
28.09.2012 11:26 15,6 C 71 % 1016,8 hPa 0,0 l/m 16,6 km/h (3 Bft) W 270 10,4 C 15,6 C
28.09.2012 11:31 15,6 C 71 % 1016,8 hPa 0,0 l/m 12,2 km/h (2 Bft) W-SW 247 10,4 C 15,6 C
28.09.2012 11:36 15,6 C 70 % 1016,8 hPa 0,0 l/m 19,8 km/h (3 Bft) SW 225 10,1 C 15,6 C
28.09.2012 11:41 15,6 C 69 % 1016,8 hPa 0,0 l/m 10,4 km/h (2 Bft) W-NW 292 9,9 C 15,6 C
28.09.2012 11:46 15,6 C 68 % 1016,8 hPa 0,0 l/m 18,0 km/h (3 Bft) W-SW 247 9,7 C 15,6 C
28.09.2012 11:51 15,7 C 68 % 1016,9 hPa 0,0 l/m 23,0 km/h (4 Bft) S-SW 202 9,8 C 15,7 C
28.09.2012 11:56 15,8 C 67 % 1016,9 hPa 0,0 l/m 18,0 km/h (3 Bft) W 270 9,7 C 15,8 C
28.09.2012 12:01 15,8 C 67 % 1016,9 hPa 0,0 l/m 18,0 km/h (3 Bft) W-SW 247 9,7 C 15,8 C
28.09.2012 12:06 15,8 C 68 % 1017,0 hPa 0,0 l/m 15,1 km/h (3 Bft) W-SW 247 9,9 C 15,8 C
28.09.2012 12:11 15,9 C 66 % 1017,0 hPa 0,0 l/m 11,9 km/h (2 Bft) W-SW 247 9,6 C 15,9 C
28.09.2012 12:16 16,0 C 67 % 1017,0 hPa 0,0 l/m 19,1 km/h (3 Bft) W 270 9,9 C 16,0 C
28.09.2012 12:21 16,1 C 66 % 1017,1 hPa 0,0 l/m 15,5 km/h (3 Bft) SW 225 9,7 C 16,1 C
28.09.2012 12:26 16,1 C 66 % 1017,0 hPa 0,0 l/m 9,0 km/h (2 Bft) W-SW 247 9,7 C 16,1 C
28.09.2012 12:31 16,1 C 66 % 1017,0 hPa 0,0 l/m 19,8 km/h (3 Bft) W 270 9,7 C 16,1 C
28.09.2012 12:36 16,1 C 66 % 1017,0 hPa 0,0 l/m 19,1 km/h (3 Bft) W 270 9,7 C 16,1 C
28.09.2012 12:41 16,1 C 64 % 1017,1 hPa 0,0 l/m 11,2 km/h (2 Bft) S-SW 202 9,3 C 16,1 C
28.09.2012 12:46 16,2 C 64 % 1017,1 hPa 0,0 l/m 11,9 km/h (2 Bft) W-SW 247 9,4 C 16,2 C
28.09.2012 12:51 16,3 C 64 % 1017,1 hPa 0,0 l/m 9,0 km/h (2 Bft) S-SO 157 9,5 C 16,3 C
28.09.2012 12:56 16,3 C 64 % 1017,0 hPa 0,0 l/m 10,1 km/h (2 Bft) W 270 9,5 C 16,3 C
28.09.2012 13:01 16,4 C 62 % 1017,1 hPa 0,0 l/m 20,9 km/h (4 Bft) W-SW 247 9,1 C 16,4 C
28.09.2012 13:06 16,8 C 62 % 1017,0 hPa 0,0 l/m 19,4 km/h (3 Bft) W 270 9,5 C 16,8 C
28.09.2012 13:11 17,2 C 59 % 1017,0 hPa 0,0 l/m 24,8 km/h (4 Bft) W-SW 247 9,1 C 17,2 C
28.09.2012 13:16 17,5 C 59 % 1017,0 hPa 0,0 l/m 12,6 km/h (3 Bft) S-SW 202 9,4 C 17,5 C
28.09.2012 13:21 17,8 C 57 % 1016,8 hPa 0,0 l/m 15,5 km/h (3 Bft) SW 225 9,2 C 17,8 C
28.09.2012 13:26 17,9 C 57 % 1016,8 hPa 0,0 l/m 10,1 km/h (2 Bft) W-SW 247 9,3 C 17,9 C
28.09.2012 13:31 17,9 C 58 % 1016,9 hPa 0,0 l/m 11,2 km/h (2 Bft) W-SW 247 9,5 C 17,9 C
28.09.2012 13:36 17,9 C 58 % 1016,8 hPa 0,0 l/m 19,4 km/h (3 Bft) W 270 9,5 C 17,9 C
28.09.2012 13:41 17,9 C 57 % 1016,8 hPa 0,0 l/m 18,7 km/h (3 Bft) SW 225 9,3 C 17,9 C
28.09.2012 13:46 17,9 C 57 % 1016,8 hPa 0,0 l/m 13,0 km/h (3 Bft) W-SW 247 9,3 C 17,9 C
28.09.2012 13:51 17,9 C 57 % 1016,8 hPa 0,0 l/m 13,3 km/h (3 Bft) S-SW 202 9,3 C 17,9 C
28.09.2012 13:56 17,6 C 57 % 1016,8 hPa 0,0 l/m 19,4 km/h (3 Bft) SW 225 9,0 C 17,6 C
28.09.2012 14:01 17,6 C 57 % 1016,8 hPa 0,0 l/m 10,8 km/h (2 Bft) W-NW 292 9,0 C 17,6 C
28.09.2012 14:06 17,6 C 57 % 1016,8 hPa 0,0 l/m 14,8 km/h (3 Bft) W-SW 247 9,0 C 17,6 C
28.09.2012 14:11 17,4 C 57 % 1017,0 hPa 0,0 l/m 8,6 km/h (2 Bft) W-SW 247 8,8 C 17,4 C
28.09.2012 14:16 17,3 C 58 % 1017,0 hPa 0,0 l/m 12,6 km/h (3 Bft) S-SO 157 9,0 C 17,3 C
28.09.2012 14:21 17,3 C 58 % 1016,8 hPa 0,0 l/m 5,0 km/h (1 Bft) SW 225 9,0 C 17,3 C
28.09.2012 14:26 17,3 C 58 % 1016,8 hPa 0,0 l/m 4,7 km/h (1 Bft) S-SW 202 9,0 C 17,3 C
28.09.2012 14:31 17,6 C 58 % 1016,7 hPa 0,0 l/m 12,6 km/h (3 Bft) W-SW 247 9,2 C 17,6 C
28.09.2012 14:36 17,8 C 57 % 1016,5 hPa 0,0 l/m 8,3 km/h (2 Bft) W-SW 247 9,2 C 17,8 C
28.09.2012 14:41 17,8 C 57 % 1016,5 hPa 0,0 l/m 14,8 km/h (3 Bft) S-SW 202 9,2 C 17,8 C
28.09.2012 14:46 17,9 C 55 % 1016,5 hPa 0,0 l/m 18,0 km/h (3 Bft) W-SW 247 8,7 C 17,9 C
28.09.2012 14:51 18,1 C 54 % 1016,7 hPa 0,0 l/m 22,3 km/h (4 Bft) W-SW 247 8,6 C 18,1 C
28.09.2012 14:56 17,9 C 54 % 1016,7 hPa 0,0 l/m 22,3 km/h (4 Bft) W 270 8,5 C 17,9 C
28.09.2012 15:01 17,6 C 54 % 1016,8 hPa 0,0 l/m 20,5 km/h (4 Bft) W-SW 247 8,2 C 17,6 C
28.09.2012 15:06 17,4 C 55 % 1016,8 hPa 0,0 l/m 14,8 km/h (3 Bft) W 270 8,3 C 17,4 C
28.09.2012 15:11 17,3 C 56 % 1016,8 hPa 0,0 l/m 10,8 km/h (2 Bft) W-SW 247 8,4 C 17,3 C
28.09.2012 15:16 17,2 C 57 % 1016,8 hPa 0,0 l/m 12,6 km/h (3 Bft) S-SW 202 8,6 C 17,2 C
28.09.2012 15:21 17,1 C 56 % 1016,9 hPa 0,0 l/m 18,4 km/h (3 Bft) W-SW 247 8,3 C 17,1 C
28.09.2012 15:26 16,9 C 57 % 1016,8 hPa 0,0 l/m 10,1 km/h (2 Bft) W-SW 247 8,3 C 16,9 C
28.09.2012 15:31 16,9 C 57 % 1016,8 hPa 0,0 l/m 6,1 km/h (2 Bft) W 270 8,3 C 16,9 C
28.09.2012 15:36 16,9 C 58 % 1016,8 hPa 0,0 l/m 7,2 km/h (2 Bft) W 270 8,6 C 16,9 C
28.09.2012 15:41 17,0 C 58 % 1016,8 hPa 0,0 l/m 10,4 km/h (2 Bft) W 270 8,7 C 17,0 C
28.09.2012 15:46 17,0 C 58 % 1016,8 hPa 0,0 l/m 9,7 km/h (2 Bft) W 270 8,7 C 17,0 C
28.09.2012 15:51 16,9 C 58 % 1016,8 hPa 0,0 l/m 11,5 km/h (2 Bft) S-SW 202 8,6 C 16,9 C
28.09.2012 15:56 16,8 C 59 % 1016,8 hPa 0,0 l/m 7,6 km/h (2 Bft) S-SW 202 8,7 C 16,8 C
28.09.2012 16:01 16,8 C 59 % 1016,8 hPa 0,0 l/m 10,4 km/h (2 Bft) W 270 8,7 C 16,8 C
28.09.2012 16:06 16,8 C 59 % 1016,8 hPa 0,0 l/m 6,5 km/h (2 Bft) W-SW 247 8,7 C 16,8 C
28.09.2012 16:11 16,8 C 60 % 1016,8 hPa 0,0 l/m 5,8 km/h (2 Bft) SW 225 9,0 C 16,8 C
28.09.2012 16:16 16,7 C 60 % 1016,8 hPa 0,0 l/m 6,1 km/h (2 Bft) SW 225 8,9 C 16,7 C
28.09.2012 16:21 16,5 C 60 % 1016,8 hPa 0,0 l/m 11,9 km/h (2 Bft) W-SW 247 8,7 C 16,5 C
28.09.2012 16:26 16,4 C 60 % 1016,9 hPa 0,0 l/m 4,0 km/h (1 Bft) SW 225 8,6 C 16,4 C
28.09.2012 16:31 16,3 C 61 % 1016,9 hPa 0,0 l/m 11,2 km/h (2 Bft) W-SW 247 8,8 C 16,3 C
28.09.2012 16:36 16,3 C 61 % 1016,9 hPa 0,0 l/m 8,3 km/h (2 Bft) S 180 8,8 C 16,3 C
28.09.2012 16:41 16,3 C 61 % 1016,9 hPa 0,0 l/m 7,6 km/h (2 Bft) S 180 8,8 C 16,3 C
28.09.2012 16:46 16,3 C 60 % 1016,8 hPa 0,0 l/m 5,0 km/h (1 Bft) W-SW 247 8,5 C 16,3 C
28.09.2012 16:51 16,3 C 60 % 1016,8 hPa 0,0 l/m 4,3 km/h (1 Bft) SW 225 8,5 C 16,3 C
28.09.2012 16:56 16,3 C 61 % 1016,6 hPa 0,0 l/m 8,3 km/h (2 Bft) W-SW 247 8,8 C 16,3 C
28.09.2012 17:01 16,2 C 61 % 1016,6 hPa 0,0 l/m 2,9 km/h (1 Bft) SW 225 8,7 C 16,2 C
28.09.2012 17:06 16,2 C 62 % 1016,7 hPa 0,0 l/m 3,6 km/h (1 Bft) S-SW 202 8,9 C 16,2 C
28.09.2012 17:11 16,2 C 62 % 1016,5 hPa 0,0 l/m 7,9 km/h (2 Bft) S-SW 202 8,9 C 16,2 C
28.09.2012 17:16 16,1 C 62 % 1016,5 hPa 0,0 l/m 6,5 km/h (2 Bft) SW 225 8,8 C 16,1 C
28.09.2012 17:21 16,1 C 63 % 1016,4 hPa 0,0 l/m 4,0 km/h (1 Bft) SW 225 9,1 C 16,1 C
28.09.2012 17:26 16,1 C 63 % 1016,3 hPa 0,0 l/m 3,6 km/h (1 Bft) S-SW 202 9,1 C 16,1 C
28.09.2012 17:31 16,1 C 63 % 1016,3 hPa 0,0 l/m 7,6 km/h (2 Bft) SW 225 9,1 C 16,1 C
28.09.2012 17:36 16,1 C 63 % 1016,4 hPa 0,0 l/m 3,2 km/h (1 Bft) S-SW 202 9,1 C 16,1 C
28.09.2012 17:41 16,2 C 63 % 1016,4 hPa 0,0 l/m 5,4 km/h (1 Bft) W-SW 247 9,1 C 16,2 C
28.09.2012 17:46 16,2 C 63 % 1016,4 hPa 0,0 l/m 6,1 km/h (2 Bft) SW 225 9,1 C 16,2 C
28.09.2012 17:51 16,3 C 63 % 1016,4 hPa 0,0 l/m 6,1 km/h (2 Bft) S-SO 157 9,2 C 16,3 C
28.09.2012 17:56 16,3 C 63 % 1016,4 hPa 0,0 l/m 4,7 km/h (1 Bft) S-SW 202 9,2 C 16,3 C
28.09.2012 18:01 16,2 C 63 % 1016,5 hPa 0,0 l/m 7,6 km/h (2 Bft) W-SW 247 9,1 C 16,2 C
28.09.2012 18:06 16,1 C 64 % 1016,5 hPa 0,0 l/m 6,5 km/h (2 Bft) SW 225 9,3 C 16,1 C
28.09.2012 18:11 16,1 C 64 % 1016,5 hPa 0,0 l/m 5,0 km/h (1 Bft) S-SW 202 9,3 C 16,1 C
28.09.2012 18:16 16,0 C 65 % 1016,6 hPa 0,0 l/m 6,8 km/h (2 Bft) W-SW 247 9,4 C 16,0 C
28.09.2012 18:21 16,0 C 65 % 1016,6 hPa 0,0 l/m 1,4 km/h (1 Bft) S-SW 202 9,4 C 16,0 C
28.09.2012 18:26 15,9 C 65 % 1016,5 hPa 0,0 l/m 3,2 km/h (1 Bft) SW 225 9,3 C 15,9 C
28.09.2012 18:31 15,8 C 65 % 1016,6 hPa 0,0 l/m 6,5 km/h (2 Bft) W 270 9,2 C 15,8 C
28.09.2012 18:36 15,6 C 66 % 1016,7 hPa 0,0 l/m 6,8 km/h (2 Bft) W-SW 247 9,3 C 15,6 C
28.09.2012 18:41 15,4 C 66 % 1016,6 hPa 0,0 l/m 3,2 km/h (1 Bft) S-SW 202 9,1 C 15,4 C
28.09.2012 18:46 15,2 C 66 % 1016,5 hPa 0,0 l/m 4,0 km/h (1 Bft) S 180 8,9 C 15,2 C
28.09.2012 18:51 14,9 C 67 % 1016,5 hPa 0,0 l/m 1,8 km/h (1 Bft) S 180 8,8 C 14,9 C
28.09.2012 18:56 14,9 C 67 % 1016,5 hPa 0,0 l/m 0,0 km/h (0 Bft) S-SO 157 8,8 C 14,9 C
28.09.2012 19:01 14,8 C 68 % 1016,5 hPa 0,0 l/m 0,0 km/h (0 Bft) S-SW 202 9,0 C 14,8 C
28.09.2012 19:06 14,5 C 68 % 1016,6 hPa 0,0 l/m 0,0 km/h (0 Bft) S-SW 202 8,7 C 14,5 C
28.09.2012 19:11 14,4 C 68 % 1016,7 hPa 0,0 l/m 1,8 km/h (1 Bft) S-SW 202 8,6 C 14,4 C
28.09.2012 19:16 14,2 C 69 % 1016,6 hPa 0,0 l/m 3,6 km/h (1 Bft) S-SW 202 8,6 C 14,2 C
28.09.2012 19:21 14,1 C 69 % 1016,7 hPa 0,0 l/m 2,2 km/h (1 Bft) S 180 8,5 C 14,1 C
28.09.2012 19:26 13,9 C 70 % 1016,7 hPa 0,0 l/m 1,1 km/h (1 Bft) S 180 8,5 C 13,9 C
28.09.2012 19:31 13,8 C 70 % 1016,6 hPa 0,0 l/m 2,2 km/h (1 Bft) S 180 8,4 C 13,8 C
28.09.2012 19:36 13,6 C 71 % 1016,7 hPa 0,0 l/m 1,4 km/h (1 Bft) S 180 8,4 C 13,6 C
28.09.2012 19:41 13,6 C 72 % 1016,7 hPa 0,0 l/m 1,1 km/h (1 Bft) S-SO 157 8,6 C 13,6 C
28.09.2012 19:46 13,5 C 72 % 1016,6 hPa 0,0 l/m 2,2 km/h (1 Bft) S-SO 157 8,6 C 13,5 C
28.09.2012 19:51 13,4 C 73 % 1016,5 hPa 0,0 l/m 2,5 km/h (1 Bft) S-SO 157 8,7 C 13,4 C
28.09.2012 19:56 13,4 C 73 % 1016,5 hPa 0,0 l/m 3,2 km/h (1 Bft) S 180 8,7 C 13,4 C
28.09.2012 20:01 13,4 C 73 % 1016,5 hPa 0,0 l/m 0,0 km/h (0 Bft) S-SO 157 8,7 C 13,4 C
28.09.2012 20:06 13,4 C 73 % 1016,6 hPa 0,0 l/m 2,2 km/h (1 Bft) S-SO 157 8,7 C 13,4 C
28.09.2012 20:11 13,4 C 73 % 1016,5 hPa 0,0 l/m 1,1 km/h (1 Bft) S-SW 202 8,7 C 13,4 C
28.09.2012 20:16 13,4 C 73 % 1016,5 hPa 0,0 l/m 0,0 km/h (0 Bft) S 180 8,7 C 13,4 C
28.09.2012 20:21 13,4 C 73 % 1016,4 hPa 0,0 l/m 0,0 km/h (0 Bft) S-SW 202 8,7 C 13,4 C
28.09.2012 20:26 13,3 C 73 % 1016,4 hPa 0,0 l/m 3,6 km/h (1 Bft) S-SW 202 8,6 C 13,3 C
28.09.2012 20:31 13,3 C 73 % 1016,5 hPa 0,0 l/m 2,5 km/h (1 Bft) S-SO 157 8,6 C 13,3 C
28.09.2012 20:36 13,1 C 73 % 1016,7 hPa 0,0 l/m 4,3 km/h (1 Bft) S 180 8,4 C 13,1 C
28.09.2012 20:41 12,9 C 74 % 1016,8 hPa 0,0 l/m 2,9 km/h (1 Bft) S-SW 202 8,4 C 12,9 C
28.09.2012 20:46 12,9 C 74 % 1016,6 hPa 0,0 l/m 2,5 km/h (1 Bft) S 180 8,4 C 12,9 C
28.09.2012 20:51 12,7 C 74 % 1016,6 hPa 0,0 l/m 2,2 km/h (1 Bft) S 180 8,2 C 12,7 C
28.09.2012 20:56 12,6 C 74 % 1016,7 hPa 0,0 l/m 0,0 km/h (0 Bft) S 180 8,1 C 12,6 C
28.09.2012 21:01 12,4 C 74 % 1016,7 hPa 0,0 l/m 2,2 km/h (1 Bft) S-SO 157 7,9 C 12,4 C
28.09.2012 21:06 12,3 C 75 % 1016,7 hPa 0,0 l/m 0,0 km/h (0 Bft) S-SW 202 8,0 C 12,3 C
28.09.2012 21:11 12,2 C 75 % 1016,9 hPa 0,0 l/m 2,9 km/h (1 Bft) SO 135 7,9 C 12,2 C
28.09.2012 21:16 12,1 C 76 % 1016,7 hPa 0,0 l/m 0,0 km/h (0 Bft) S-SO 157 8,0 C 12,1 C
28.09.2012 21:21 11,9 C 76 % 1016,7 hPa 0,0 l/m 2,5 km/h (1 Bft) S-SW 202 7,8 C 11,9 C
28.09.2012 21:26 11,9 C 76 % 1016,8 hPa 0,0 l/m 2,2 km/h (1 Bft) S 180 7,8 C 11,9 C
28.09.2012 21:31 11,9 C 76 % 1016,8 hPa 0,0 l/m 5,0 km/h (1 Bft) S-SW 202 7,8 C 11,9 C
28.09.2012 21:36 11,8 C 77 % 1016,9 hPa 0,0 l/m 2,9 km/h (1 Bft) S-SO 157 7,9 C 11,8 C
28.09.2012 21:41 11,7 C 77 % 1016,7 hPa 0,0 l/m 4,0 km/h (1 Bft) S-SO 157 7,8 C 11,7 C
28.09.2012 21:46 11,6 C 77 % 1016,7 hPa 0,0 l/m 3,2 km/h (1 Bft) SO 135 7,7 C 11,6 C
28.09.2012 21:51 11,5 C 78 % 1016,8 hPa 0,0 l/m 0,0 km/h (0 Bft) S 180 7,8 C 11,5 C
28.09.2012 21:56 11,4 C 78 % 1016,8 hPa 0,0 l/m 2,9 km/h (1 Bft) S-SO 157 7,7 C 11,4 C
28.09.2012 22:01 11,4 C 78 % 1016,7 hPa 0,0 l/m 2,2 km/h (1 Bft) S-SW 202 7,7 C 11,4 C
28.09.2012 22:06 11,3 C 79 % 1016,7 hPa 0,0 l/m 2,5 km/h (1 Bft) S-SO 157 7,8 C 11,3 C
28.09.2012 22:11 11,3 C 79 % 1016,7 hPa 0,0 l/m 2,5 km/h (1 Bft) S-SO 157 7,8 C 11,3 C
28.09.2012 22:16 11,3 C 80 % 1016,7 hPa 0,0 l/m 4,7 km/h (1 Bft) S-SW 202 8,0 C 11,3 C
28.09.2012 22:21 11,4 C 80 % 1016,7 hPa 0,0 l/m 3,2 km/h (1 Bft) S-SO 157 8,1 C 11,4 C
28.09.2012 22:26 11,4 C 80 % 1016,7 hPa 0,0 l/m 0,0 km/h (0 Bft) S-SW 202 8,1 C 11,4 C
28.09.2012 22:31 11,5 C 80 % 1016,7 hPa 0,0 l/m 3,6 km/h (1 Bft) S-SO 157 8,2 C 11,5 C
28.09.2012 22:36 11,6 C 80 % 1016,5 hPa 0,0 l/m 4,0 km/h (1 Bft) S 180 8,3 C 11,6 C
28.09.2012 22:41 11,6 C 80 % 1016,6 hPa 0,0 l/m 0,0 km/h (0 Bft) S 180 8,3 C 11,6 C
28.09.2012 22:46 11,6 C 79 % 1016,6 hPa 0,0 l/m 5,0 km/h (1 Bft) S 180 8,1 C 11,6 C
28.09.2012 22:51 11,6 C 79 % 1016,6 hPa 0,0 l/m 0,0 km/h (0 Bft) S-SW 202 8,1 C 11,6 C
28.09.2012 22:56 11,5 C 79 % 1016,6 hPa 0,0 l/m 5,0 km/h (1 Bft) SO 135 8,0 C 11,5 C
28.09.2012 23:01 11,4 C 79 % 1016,6 hPa 0,0 l/m 3,6 km/h (1 Bft) S 180 7,9 C 11,4 C
28.09.2012 23:06 11,4 C 80 % 1016,6 hPa 0,0 l/m 3,2 km/h (1 Bft) S-SW 202 8,1 C 11,4 C
28.09.2012 23:11 11,3 C 80 % 1016,7 hPa 0,0 l/m 5,8 km/h (2 Bft) SW 225 8,0 C 11,3 C
28.09.2012 23:16 11,3 C 79 % 1016,7 hPa 0,0 l/m 3,2 km/h (1 Bft) S-SO 157 7,8 C 11,3 C
28.09.2012 23:21 11,2 C 79 % 1016,6 hPa 0,0 l/m 1,4 km/h (1 Bft) S-SO 157 7,7 C 11,2 C
28.09.2012 23:26 11,1 C 80 % 1016,7 hPa 0,0 l/m 5,8 km/h (2 Bft) S-SW 202 7,8 C 11,1 C
28.09.2012 23:31 11,0 C 80 % 1016,7 hPa 0,0 l/m 1,4 km/h (1 Bft) S-SW 202 7,7 C 11,0 C
28.09.2012 23:36 10,9 C 80 % 1016,7 hPa 0,0 l/m 2,2 km/h (1 Bft) S 180 7,6 C 10,9 C
28.09.2012 23:41 10,9 C 81 % 1016,7 hPa 0,0 l/m 1,4 km/h (1 Bft) S-SW 202 7,8 C 10,9 C
28.09.2012 23:46 10,9 C 81 % 1016,7 hPa 0,0 l/m 6,8 km/h (2 Bft) S-SW 202 7,8 C 10,9 C
28.09.2012 23:51 11,0 C 81 % 1016,7 hPa 0,0 l/m 6,1 km/h (2 Bft) S 180 7,9 C 11,0 C
28.09.2012 23:56 11,1 C 81 % 1016,7 hPa 0,0 l/m 2,9 km/h (1 Bft) S-SW 202 8,0 C 11,1 C
_ Min-Zeit 23:36 14:51 00:01 - 18:56 - - 23:36 23:36
Minimum _ 10,9 C 54 % 1008,7 hPa - 0,0 km/h (0 Bft) - - 7,6 C 10,9 C
_ Max-Zeit 14:51 05:06 12:21 00:01 11:06 - - 10:51 14:51
Maximum _ 18,1 C 88 % 1017,1 hPa 0,0 l/m 28,1 km/h
W-SW (4 Bft)
- - 10,8 C 18,1 C
Durchschnitt _ 13,7 C 76 % 1015,0 hPa #0,0 l/m 9,7 km/h (2 Bft) W-SW - 9,3 C 13,7 C
(c) by David Heller